Location: San Martino di Castrozza
(46.2667°N, 11.8000°E)
Time: 02:56:25
(UTC+00:00)

ATLAS 2AS CENTAUR R/B - Pass Details

Date: 23 April 2021
Orbit: 949 x 1263 km, 63.7° (Epoch: 07 May)

Event Time Altitude Azimuth Distance (km) Brightness Sun altitude
Rises 00:30:22 0° 319° (NW) 4,147 6.1 -28.6°
Reaches altitude 10° 00:33:28 10° 327° (NNW) 3,142 5.5 -28.3°
Maximum altitude 00:40:27 39° 35° (NE) 1,642 4.1 -27.9°
Drops below altitude 10° 00:46:55 10° 103° (ESE) 2,920 5.1 -27.4°
Sets 00:49:41 0° 111° (ESE) 3,826 5.7 -27.2°
